Regional Weather Roundup
Issued by NWS

Home | Current Version | Previous Version | Graphics & Text | Print | Product List | Glossary On
Versions: 1 2 3 4 5 6 7 8 9 10 11 12 13 14 15 16 17 18 19 20 21 22 23 24 25 26 27 28 29 30 31 32 33 34 35 36 37 38 39 40 41 42 43 44 45 46 47 48 49 50
000
ASUS43 KMPX 291101
RWRMN
WEATHER ROUNDUP FOR MINNESOTA
NATIONAL WEATHER SERVICE TWIN CITIES/CHANHASSEN MN
600 AM CDT FRI JUL 29 2016


NOTE: "FAIR" INDICATES FEW OR NO CLOUDS BELOW 12,000 FEET WITH NO
SIGNIFICANT WEATHER AND/OR OBSTRUCTIONS TO VISIBILITY. N/A MEANS
CURRENT SKY AND/OR WEATHER CONDITIONS ARE NOT AVAILABLE.

MNZ060>063-068>070-291200-
   Twin Cities Metro

CITY           SKY/WX    TMP DP  RH WIND       PRES   REMARKS
TWIN CITIES    PTCLDY    61  55  81 N6        30.06R
ST PAUL        PTCLDY    61  57  87 N3        30.06S
CRYSTAL        CLEAR     58  52  80 CALM      30.05S
BLAINE         CLEAR     57  55  94 NE5       30.07R
LAKEVILLE      CLOUDY    63  57  82 N5        30.05S
EDEN PRAIRIE   MOCLDY    61  56  83 N7        30.04S
LAKEVILLE      CLOUDY    63  57  82 N5        30.05S
SOUTH ST PAUL  CLOUDY    64  56  76 N5        30.05S
LAKE ELMO      MOCLDY    59  55  88 CALM      30.07S
$$
MNZ001>005-007-008-013>017-022>024-027-028-291200-
   Northwest Minnesota

CITY           SKY/WX    TMP DP  RH WIND       PRES   REMARKS
HALLOCK        FOG       52  50  93 CALM      30.09S VSB 1/2
ROSEAU         CLEAR     52  46  82 CALM      30.10S
WARROAD        PTCLDY    54  48  82 CALM      30.10S
THIEF RVR FALL CLEAR     53  52  96 CALM      30.10S FOG
CROOKSTON      CLEAR     54  52  94 CALM      30.09S
FOSSTON        FOG       46  45  93 CALM      30.10S VSB 3/4
DETROIT LAKES  MOCLDY    61  59  94 CALM      30.10S
MOORHEAD       CLEAR     55  54  94 CALM      30.09S
PARK RAPIDS    CLEAR     57  54  89 CALM      30.10S
MAHNOMEN       FAIR      53  53  97 CALM      30.09S
$$
MNZ006-009>011-018-025>026-291200-
   North Central Minnesota

CITY           SKY/WX    TMP DP  RH WIND       PRES   REMARKS
BAUDETTE       CLEAR     52  50  93 CALM      30.09S
FLAG ISLAND    CLEAR     64  57  77 N5        30.08F
INTL FALLS     CLEAR     48  46  93 CALM      30.11S
WASKISH        CLEAR     54  52  94 CALM      30.09S FOG
BIG FORK       CLEAR     50  48  93 CALM      30.11S
LONGVILLE      CLEAR     52  52 100 CALM      30.10S
GRAND RAPIDS   PTCLDY    54  52  93 CALM      30.14S
CRANE LAKE     PTCLDY    46  46 100 CALM      30.14S
ORR            CLEAR     52  48  87 CALM      30.10S
COOK           PTCLDY    48  48 100 CALM      30.13S
WALKER         FOG       53  52  99 CALM      30.10S VSB 1/2
$$
MNZ012-019>021-037-291200-
   Northeast Minnesota

CITY           SKY/WX    TMP DP  RH WIND       PRES   REMARKS
DULUTH         PTCLDY    52  49  89 N3        30.12S
ELY            PTCLDY    46  45  93 CALM      30.13F
HIBBING        PTCLDY    46  45  96 CALM      30.12F
EVELETH        MOCLDY    50  49  97 CALM      30.13F
DULUTH HARBOR  CLEAR     55  54  94 S5        30.12S
TWO HARBORS    CLEAR     50  45  81 CALM      30.10S
SILVER BAY     CLEAR     46  45  93 CALM      30.11R
GRAND MARAIS     N/A     60  51  72 N9        30.10S
G MARAIS ARPRT CLEAR     46  43  87 N6        30.15S
$$
MNZ029>031-032-039>041-046>048-054>057-064-291200-
   West Central Minnesota

CITY           SKY/WX    TMP DP  RH WIND       PRES   REMARKS
FERGUS FALLS   CLEAR     61  61 100 E3        30.10R
WHEATON        CLEAR     63  61  94 W2        30.09S
MORRIS         CLEAR     59  57  94 CALM      30.07S FOG
ALEXANDRIA     CLEAR     57  55  93 N5        30.10S
ELBOW LAKE     FAIR      61  61  98 CALM      30.09R
WADENA         CLEAR     52  52 100 CALM      30.09S
GLENWOOD       CLEAR     55  54  94 N3        30.09S
APPLETON       CLEAR     57  54  88 CALM      30.08S
BENSON         CLEAR     54  52  94 CALM      30.08S
ORTONVILLE     MOCLDY    63  59  88 CALM      30.08S
MADISON        CLEAR     57  55  94 CALM      30.08S
WILLMAR        FAIR      55  54  94 CALM      30.09S
$$
MNZ033>034-036-042>043-049>051-058-059-291200-
   Central Minnesota

CITY           SKY/WX    TMP DP  RH WIND       PRES   REMARKS
ST CLOUD       CLEAR     54  53  97 CALM      30.08S
SAUK CENTRE    FAIR      56  54  91 NE3       30.08F
PAYNESVILLE    CLEAR     55  55 100 NE3       30.08S
AITKIN         MOCLDY    55  50  82 CALM      30.10S HAZE
PINE RIVER     PTCLDY    52  52 100 CALM      30.13S
BRAINERD       CLEAR     58  56  93 CALM      30.11S
STAPLES        CLEAR     54  54 100 CALM      30.09F
LONG PRAIRIE   FAIR      54  54 100 N3        30.09S
LITTLE FALLS   CLEAR     55  52  88 CALM      30.09S
LITCHFIELD     CLEAR     59  57  94 NE3       30.08S
BUFFALO        CLEAR     58  53  86 N3        30.08R
MAPLE LAKE     CLEAR     57  55  90 CALM      30.09R
HUTCHINSON     CLEAR     59  56  91 NE3       30.07F
$$
MNZ037-044-045-052-053-291200-
   East Central Minnesota

CITY           SKY/WX    TMP DP  RH WIND       PRES   REMARKS
PRINCETON        N/A     55  54  94 N3        30.08F
MORA           CLEAR     54  52  94 CALM      30.10S
CAMBRIDGE      CLEAR     57  50  77 CALM      30.07S
RUSH CITY      MOCLDY    53  51  92 NE5       30.08S
MOOSE LAKE     CLEAR     52  50  93 CALM      30.09S
HINCKLEY       FAIR      54  54 100 CALM      30.09F
CLOQUET        PTCLDY    48  46  93 CALM      30.12R
MCGREGOR       CLOUDY    55  54  94 CALM      30.12S
$$
MNZ071>073-080-081-089-090-097-098-291200-
   Southwest Minnesota

CITY           SKY/WX    TMP DP  RH WIND       PRES   REMARKS
MONTEVIDEO     CLEAR     54  52  94 CALM      30.09S
GRANITE FALLS  CLEAR     56  54  92 CALM      30.09S
CANBY          CLEAR     55  53  94 CALM      30.09S
MARSHALL       CLEAR     53  51  93 NW5       30.08S
REDWOOD FALLS  PTCLDY    58  55  90 N3        30.07S
OLIVIA         CLEAR     54  52  94 CALM      30.07S
PIPESTONE      CLEAR     57  54  88 CALM      30.07F
WINDOM         PTCLDY    61  57  88 N6        30.05S
WORTHINGTON    CLEAR     56  54  93 NW6       30.07R
JACKSON        CLEAR     57  54  88 N3        30.06R
TRACY          CLEAR     57  55  94 NW5       30.08S
SLAYTON        CLEAR     54  53  95 NW3       30.08S
$$
MNZ065>067-074>077-082>085-091>093-291200-
   South Central Minnesota

CITY           SKY/WX    TMP DP  RH WIND       PRES   REMARKS
MANKATO        CLOUDY    63  55  77 N8        30.04S
NEW ULM        CLEAR     59  57  94 N6        30.05S
ST JAMES       MOCLDY    57  55  94 CALM      30.05S
FAIRMONT       CLEAR     61  55  82 N6        30.02S
GLENCOE        CLEAR     59  58  95 N6        30.06S
FARIBAULT        N/A     64  63  94 N5        30.04S
OWATONNA       CLOUDY    64  61  88 NE5       30.03S
WASECA         CLOUDY    63  59  88 N6        30.04F
ALBERT LEA     CLOUDY    64  61  88 NE7       30.01F
$$
MNZ078>079-086>088-094>096-291200-
   Southeast Minnesota

CITY           SKY/WX    TMP DP  RH WIND       PRES   REMARKS
ROCHESTER      CLOUDY    64  61  90 N13       30.02F
RED WING       CLOUDY    64  59  82 CALM      30.03S
STANTON        CLOUDY    64  61  88 N3        30.03S
DODGE CENTER   CLOUDY   N/A N/A N/A NE7       30.03S
WINONA         CLOUDY    66  61  82 NE7       30.01S
AUSTIN         CLOUDY    63  59  88 NE7       30.00F
PRESTON        CLOUDY    61  59  91 NE8       30.01S
$$
ABBREVIATIONS USED IN REMARKS
   TC - TEMPERATURES IN CELSIUS
  WCI - WIND CHILL INDEX
   HX - HEAT INDEX
  VSB - VISIBILITY
$$



USA.gov is the U.S. government's official web portal to all federal, state and local government web resources and services.